Location: Unspecified
(0.0000°N, 0.0000°E)
Time: 16:17:46
(UTC+02:00)

Cosmos 2228 - Visible Passes

Search period start: 05 September 2015 00:00
Search period end: 15 September 2015 00:00
Orbit: 591 x 622 km, 82.5° (Epoch: 05 September)

Date Brightness Start Highest point End Pass type
(mag) Time Alt. Az. Time Alt. Az. Time Alt. Az.
05 Sep 5.3 21:22:00 10° SW 21:25:44 26° W 21:29:20 10° NNW visible
06 Sep 6.4 21:37:05 10° WSW 21:39:19 13° W 21:41:16 10° WNW visible
08 Sep 3.1 20:24:30 10° S 20:28:53 85° W 20:33:13 10° N visible
09 Sep 4.6 20:38:17 10° SSW 20:42:24 40° W 20:46:26 10° NNW visible
10 Sep 6.0 20:52:41 10° SW 20:55:57 20° W 20:59:02 10° NW visible
11 Sep 6.2 07:21:56 10° NE 07:25:04 21° E 07:28:22 10° SE visible
